Flag for Japan Weather past 2 weeks in Fukuoka, Japan

Now
54 °F

Partly sunny.


Feels Like: 54 °F
Forecast: 56 / 67 °F
Wind: No wind

Location: Fukuoka Airport


UV Index: 5 (Moderate)

Visibility: 4 mi


Pressure: 30.04 "Hg

Humidity: 88%

Dew point: 50 °F

Location of FukuokaLocation

Historic Weather in Fukuoka

°F

Fukuoka temperature yesterday

Maximum temperature yesterday: 64 °F (at 1:30 AM)
Minimum temperature yesterday: 57 °F (at 10:30 PM)
Average temperature yesterday: 61 °F

Past Weeks' High & Low Weather Summary

 TemperatureHumidityPressure
High73 °F (Apr 16, 2:00 PM)94% (Apr 13, 5:00 AM)30.18 "Hg (Apr 13, 5:00 AM)
Low41 °F (Apr 5, 12:00 AM)18% (Apr 14, 4:00 PM)29.74 "Hg (Apr 4, 6:00 AM)
Average57 °F64%30.00 "Hg
* Reported Apr 4 6:00 AM — Apr 19 6:00 AM, Fukuoka, Weather by CustomWeather, © 2014

Note: Actual official high and low records may vary slightly from our data, if they occured in-between our weather recording intervals... More about our weather records

Advertising

Historic Weather Conditions — Data for Previous 24 hours

 ConditionsComfort  
Time TempWeatherWind HumidityBarometerVisibility
6:00 AM
Apr 19
52 °FPartly sunny.1 mph94%30.04 "Hg5 mi
5:30 AM52 °FPassing clouds.1 mph94%30.04 "Hg5 mi
5:00 AM52 °FPassing clouds.2 mph88%30.01 "Hg5 mi
4:30 AM50 °FPassing clouds.1 mph88%30.01 "Hg5 mi
4:00 AM52 °FPassing clouds.5 mph88%30.01 "Hg5 mi
3:30 AM55 °FPassing clouds.2 mph82%30.01 "Hg5 mi
3:00 AM55 °FPassing clouds.2 mph82%30.01 "Hg5 mi
2:30 AM55 °FPassing clouds.3 mph82%30.01 "Hg5 mi
2:00 AM55 °FPassing clouds.6 mph82%30.01 "Hg5 mi
1:30 AM55 °FPassing clouds.5 mph82%30.01 "Hg5 mi
1:00 AM57 °FPassing clouds.3 mph77%30.01 "Hg5 mi
12:30 AM55 °FPassing clouds.5 mph82%30.01 "Hg5 mi
12:00 AM55 °FPassing clouds.3 mph82%30.01 "Hg5 mi
11:30 PM
Apr 18
57 °FPassing clouds.3 mph77%30.01 "Hg5 mi
11:00 PM57 °FPassing clouds.6 mph82%30.01 "Hg5 mi
10:30 PM57 °FPassing clouds.6 mph82%30.01 "Hg5 mi
10:00 PM59 °FPassing clouds.7 mph77%30.01 "Hg5 mi
9:30 PM59 °FPassing clouds.8 mph77%29.98 "Hg5 mi
9:00 PM59 °FPassing clouds.8 mph77%29.98 "Hg4 mi
8:30 PM59 °FPassing clouds.9 mph77%29.98 "Hg4 mi
8:00 PM59 °FPassing clouds.10 mph77%29.98 "Hg4 mi
7:30 PM59 °FPassing clouds.12 mph77%29.95 "Hg4 mi
7:00 PM61 °FPassing clouds.8 mph72%29.95 "Hg4 mi
6:30 PM61 °FBroken clouds.12 mph72%29.95 "Hg4 mi
6:00 PM61 °FBroken clouds.12 mph72%29.95 "Hg4 mi
5:30 PM61 °FBroken clouds.13 mph77%29.95 "Hg4 mi
5:00 PM61 °FBroken clouds.13 mph72%29.92 "Hg4 mi
4:30 PM61 °FBroken clouds.13 mph77%29.92 "Hg4 mi
4:00 PM61 °FBroken clouds.14 mph77%29.89 "Hg4 mi
3:30 PM63 °FBroken clouds.13 mph73%29.89 "Hg5 mi
3:00 PM63 °FBroken clouds.12 mph68%29.89 "HgN/A
2:30 PM64 °FBroken clouds.15 mph68%29.89 "HgN/A
2:00 PM63 °FBroken clouds.15 mph68%29.89 "HgN/A
1:30 PM63 °FBroken clouds.9 mph73%29.89 "HgN/A
1:00 PM61 °FPartly sunny.10 mph77%29.92 "HgN/A
12:30 PM63 °FPartly sunny.10 mph73%29.92 "HgN/A
12:00 PM61 °FPartly sunny.9 mph77%29.89 "HgN/A
11:30 AM59 °FSprinkles. Broken clouds.9 mph88%29.89 "HgN/A
11:00 AM59 °FSprinkles. Fog.9 mph94%29.89 "Hg5 mi
10:30 AM61 °FBroken clouds.8 mph83%29.89 "HgN/A
10:00 AM59 °FPartly sunny.5 mph88%29.89 "HgN/A
9:30 AM59 °FPartly sunny.8 mph88%29.89 "HgN/A
9:00 AM59 °FBroken clouds.8 mph94%29.86 "Hg4 mi
8:30 AM59 °FFog.7 mph88%29.86 "Hg3 mi
8:00 AM59 °FFog.9 mph94%29.86 "Hg2 mi
7:30 AM61 °FFog.3 mph88%29.86 "Hg2 mi
7:00 AM59 °FFog.3 mph94%29.83 "Hg2 mi
Weather by CustomWeather, © 2014

See weather overview